Spokane Felts, WA
on Wednesday, January 16, 2013

Wednesday
Previous Day Next Day
Daily Summary
 ActualAverageRecord
Temperature
Mean Temperature °F 32°F  
Max Temperature 30°F 37°F 55°F (2011)
Min Temperature 20°F 26°F 8°F (2007)
Degree Days
Heating Degree Days 40 34  
Month to date heating degree days 599 553  
Since 1 July heating degree days 2767 3222  
Cooling Degree Days 0 0  
Month to date cooling degree days 0 0  
Year to date cooling degree days 0 0  
Moisture
Dew Point 21°F   
Average Humidity 87    
Maximum Humidity 92    
Minimum Humidity 81    
Precipitation
Precipitation T in 0.06 in 0.39 in (2000)
Month to date precipitation 0.92 1.08  
Year to date precipitation 0.92 1.08  
Wind
Wind Speed 2 mph   
Max Wind Speed 8 mph   
Max Gust Speed 9 mph   
Visibility 2 miles   
Events Fog   

Key: T is trace of precipitation, MM is missing value
Source: NWS Daily Summary
Time(PST)TemperatureDew PointHumidity Pressure Visibility Wind DirectionWind SpeedGust SpeedPrecipitationEvents Conditions
12:10 AM 23.0°F 19.4°F 86% 30.52 in 3.0 miles Calm Calm - N/A   Overcast
12:53 AM 25.0°F 21.9°F 88% 30.60 in 4.0 miles Calm Calm - N/A   Overcast
1:20 AM 26.6°F 21.2°F 80% 30.53 in 1.8 miles Calm Calm - N/A   Overcast
1:48 AM 24.8°F 21.2°F 86% 30.53 in 0.8 miles ENE 3.5 mph - N/A   Overcast
1:53 AM 25.0°F 21.9°F 88% 30.60 in 1.0 miles Calm Calm - N/A   Overcast
2:03 AM 24.8°F 21.2°F 86% 30.53 in 0.5 miles NE 3.5 mph - N/A Fog Light Freezing Fog
2:53 AM 25.0°F 21.9°F 88% 30.61 in 0.2 miles SSE 3.5 mph - N/A Fog Light Freezing Fog
3:53 AM 24.1°F 21.0°F 88% 30.61 in 0.5 miles SE 4.6 mph - N/A Fog Light Freezing Fog
4:41 AM 24.8°F 21.2°F 86% 30.55 in 1.0 miles ENE 3.5 mph - N/A   Mist
4:47 AM 24.8°F 19.4°F 80% 30.55 in 3.0 miles Calm Calm - N/A   Overcast
4:53 AM 23.0°F 19.9°F 88% 30.62 in 4.0 miles ENE 4.6 mph - N/A   Overcast
5:28 AM 24.8°F 19.4°F 80% 30.55 in 2.5 miles ENE 3.5 mph - N/A   Overcast
5:53 AM 24.1°F 21.0°F 88% 30.61 in 1.2 miles ENE 4.6 mph - N/A   Overcast
6:53 AM 24.1°F 21.0°F 88% 30.61 in 0.8 miles East 5.8 mph - N/A   Overcast
7:53 AM 25.0°F 21.9°F 88% 30.63 in 0.8 miles Calm Calm - N/A   Overcast
8:00 AM 24.8°F 21.2°F 86% 30.56 in 0.5 miles Calm Calm - N/A Fog Light Freezing Fog
8:33 AM 24.8°F 21.2°F 86% 30.57 in 1.0 miles Calm Calm - N/A   Overcast
8:53 AM 25.0°F 21.9°F 88% 30.64 in 1.8 miles ESE 4.6 mph - N/A   Overcast
9:53 AM 25.0°F 21.9°F 88% 30.65 in 2.0 miles Calm Calm - 0.00 in   Overcast
10:53 AM 26.1°F 23.0°F 88% 30.64 in 2.0 miles Calm Calm - N/A   Overcast
11:53 AM 27.0°F 23.0°F 85% 30.62 in 2.0 miles Calm Calm - 0.00 in   Overcast
12:53 PM 26.1°F 24.1°F 92% 30.60 in 3.0 miles Calm Calm - N/A   Overcast
1:42 PM 26.6°F 24.8°F 93% 30.52 in 2.0 miles Calm Calm - N/A   Overcast
1:53 PM 27.0°F 24.1°F 89% 30.60 in 2.0 miles Calm Calm - N/A   Overcast
2:53 PM 28.9°F 25.0°F 85% 30.60 in 2.0 miles Calm Calm - N/A   Overcast
2:55 PM 28.4°F 24.8°F 86% 30.53 in 4.0 miles Calm Calm - N/A   Partly Cloudy
3:53 PM 28.9°F 24.1°F 82% 30.60 in 4.0 miles Calm Calm - N/A   Haze
4:53 PM 27.0°F 23.0°F 85% 30.60 in 4.0 miles Calm Calm - N/A   Clear
5:53 PM 25.0°F 21.0°F 85% 30.60 in 5.0 miles Calm Calm - N/A   Clear
6:53 PM 24.1°F 19.9°F 84% 30.60 in 3.0 miles Calm Calm - N/A   Clear
7:00 PM 21.2°F 19.4°F 93% 30.52 in 1.2 miles Calm Calm - N/A   Clear
7:02 PM 21.2°F 19.4°F 93% 30.52 in 3.0 miles Calm Calm - N/A   Clear
7:53 PM 23.0°F 19.0°F 85% 30.60 in 3.0 miles NNE 3.5 mph - N/A   Clear
7:59 PM 23.0°F 19.4°F 86% 30.52 in 5.0 miles Calm Calm - N/A   Mostly Cloudy
8:09 PM 24.8°F 21.2°F 86% 30.52 in 1.5 miles Calm Calm - N/A   Mostly Cloudy
8:12 PM 24.8°F 21.2°F 86% 30.52 in 0.5 miles Calm Calm - N/A Fog Light Freezing Fog
8:23 PM 24.8°F 21.2°F 86% 30.52 in 1.0 miles Calm Calm - N/A   Overcast
8:28 PM 24.8°F 21.2°F 86% 30.52 in 3.0 miles Calm Calm - N/A   Overcast
8:53 PM 21.9°F 19.0°F 89% 30.61 in 3.0 miles Calm Calm - N/A   Overcast
9:02 PM 21.2°F 17.6°F 86% 30.53 in 2.0 miles Calm Calm - N/A   Overcast
9:14 PM 23.0°F 19.4°F 86% 30.53 in 0.8 miles Calm Calm - N/A   Overcast
9:23 PM 23.0°F 19.4°F 86% 30.53 in 0.2 miles Calm Calm - N/A Fog Light Freezing Fog
9:53 PM 21.0°F 18.0°F 88% 30.61 in 0.2 miles Calm Calm - N/A Fog Light Freezing Fog
10:48 PM 21.2°F 19.4°F 93% 30.52 in 0.5 miles Calm Calm - N/A Fog Light Freezing Fog
10:53 PM 23.0°F 19.0°F 85% 30.60 in 0.5 miles Calm Calm - N/A Fog Light Freezing Fog
11:09 PM 23.0°F 19.4°F 86% 30.52 in 1.0 miles Calm Calm - N/A   Overcast
11:22 PM 21.2°F 19.4°F 93% 30.52 in 0.5 miles ESE 3.5 mph - N/A Fog Light Freezing Fog
11:53 PM 21.9°F 18.0°F 85% 30.61 in 0.2 miles Calm Calm - N/A Fog Light Freezing Fog
Moon Phase
Jan. 16 Jan. 18 Jan. 26 Feb. 03 Feb. 10
Sunrise:07:32 AM (PST) Moon Rise:09:43 AM (PST)1/16
Sunset:04:26 PM (PST) Moon Set:10:53 PM (PST)1/16

Copyright © 2014 The Weather Underground, Inc.